User: anonymous   Login
Location: NJAA Observatory
(40.6819°N, 74.8979°W)
Time: 11:41:55
(UTC-04:00)
Language:

Cosmos 1328 Rocket - Orbit

View from above orbital plane
View from above orbital plane
View from above satellite
View from above satellite

Ground track
Ground track

The orbit data is extracted from the following two-line orbital elements,

1 12988U 81117B   17176.19536315 +.00000097 +00000-0 +86058-5 0  9999
2 12988 082.5252 065.8461 0018120 176.2985 297.0554 14.84655776899959
Epoch (UTC): 25 June 2017 04:41:19
Eccentricity: 0.0018120
inclination: 82.5252°
perigee height: 602 km
apogee height: 627 km
right ascension of ascending node: 65.8461°
argument of perigee: 176.2985°
revolutions per day: 14.84655776
mean anomaly at epoch: 297.0554°
orbit number at epoch: 89995

The dashed part of the orbit path shows where the satellite is in the earth's shadow,  

DLR